Visibility
15.0 15.0 15.0 15.0 15.0 15.0 15.0 15.0 15.0 15.0 15.0 15.0 15.0 15.0 15.0 15.0 15.0 14.9 15.0 15.0 15.0 15.0 12.4 15.0 14.9 14.6 8.3
15.0 15.0 15.0 15.0 15.0 15.0 15.0 15.0 15.0 15.0 15.0 15.0 15.0 15.0 15.0 15.0 15.0 15.0 15.0 15.0 13.8 14.7 13.9 15.0 14.7 14.9 15.0
15.0 15.0 15.0 15.0 15.0 15.0 15.0 15.0 15.0 15.0 15.0 15.0 15.0 15.0 15.0 15.0 15.0 15.0 15.0 15.0 15.0 15.0 15.0 15.0 15.0 15.0 15.0
15.0 15.0 15.0 15.0 15.0 15.0 15.0 15.0 15.0 15.0 15.0 15.0 15.0 15.0 15.0 15.0 15.0 15.0 15.0 15.0 15.0 15.0 15.0 15.0 15.0 15.0 15.0
15.0 14.1 15.0 15.0 15.0 15.0 15.0 15.0 15.0 15.0 15.0 15.0 15.0 15.0 15.0 15.0 15.0 15.0 15.0 15.0 15.0 15.0 14.4 15.0 12.3 11.1 5.8
14.9 15.0 15.0 15.0 15.0 15.0 15.0 15.0 2.9 15.0 15.0 15.0 15.0 15.0 15.0 15.0 15.0 15.0 15.0 15.0 15.0 15.0 15.0 15.0 15.0 12.1 15.0
15.0 15.0 15.0 15.0 15.0 15.0 15.0 8.3 1.3 15.0 15.0 15.0 15.0 15.0 15.0 15.0 15.0 15.0 15.0 15.0 15.0 15.0 15.0 13.1 15.0 12.9 15.0
15.0 15.0 15.0 15.0 15.0 9.7 8.3 8.6 15.0 15.0 15.0 3.8 15.0 15.0 15.0 15.0 15.0 15.0 15.0 15.0 15.0 15.0 15.0 15.0 13.0 14.3 13.1
15.0 15.0 15.0 15.0 15.0 15.0 15.0 6.0 5.0 15.0 15.0 15.0 15.0 15.0 15.0 15.0 15.0 15.0 15.0 15.0 15.0 15.0 15.0 15.0 15.0 15.0 14.1
15.0 15.0 15.0 15.0 15.0 15.0 12.2 1.0 0.4 0.5 15.0 4.2 14.0 8.6 2.3 15.0 15.0 15.0 15.0 15.0 15.0 15.0 15.0 15.0 15.0 15.0 15.0
15.0 15.0 15.0 15.0 15.0 15.0 15.0 2.3 0.2 0.4 15.0 1.0 0.3 8.2 0.4 1.9 15.0 15.0 15.0 15.0 15.0 15.0 15.0 15.0 15.0 15.0 15.0
15.0 15.0 15.0 15.0 15.0 15.0 15.0 15.0 14.3 2.0 15.0 5.8 0.1 1.9 0.2 0.4 6.4 15.0 15.0 15.0 15.0 15.0 15.0 15.0 15.0 15.0 13.3
15.0 15.0 15.0 15.0 15.0 15.0 15.0 15.0 15.0 15.0 15.0 15.0 0.6 0.5 0.1 0.1 0.3 3.1 15.0 15.0 15.0 15.0 15.0 15.0 15.0 15.0 15.0
14.6 14.8 15.0 6.1 9.3 15.0 4.9 12.3 0.9 15.0 15.0 15.0 15.0 0.3 0.1 0.5 0.6 0.9 15.0 1.1 15.0 15.0 15.0 15.0 15.0 15.0 15.0
3.5 2.6 8.0 10.3 12.1 15.0 5.1 1.1 0.2 1.3 11.9 15.0 15.0 15.0 15.0 1.8 0.1 14.4 14.8 15.0 15.0 15.0 11.3 1.0 15.0 15.0 15.0
2.8 2.2 1.4 2.7 2.8 4.9 10.3 1.2 0.5 6.6 8.5 15.0 15.0 5.1 15.0 15.0 10.2 1.3 5.5 5.4 15.0 15.0 3.9 0.1 0.4 15.0 15.0
1.8 2.3 0.9 5.1 3.0 3.5 9.0 1.6 1.5 14.2 15.0 15.0 0.8 0.2 0.1 2.6 15.0 15.0 0.2 0.3 0.4 5.2 15.0 14.9 1.2 14.5 15.0